{"data":{"norad_id":53847,"intl_designator":"2022-114AF","name":"STARLINK-4777","alt_names":[],"object_type":"PAYLOAD","status":"ACTIVE","operator":null,"country":"US","launch_date":"2022-09-19","launch_site_code":"AFETR","launch_vehicle":null,"mission":null,"orbit_class":"UNKNOWN","rcs_meters":null,"size_class":null,"mass_kg":null,"dimensions":null,"purposes":["comms"],"wikipedia_slug":null,"has_3d_model":false,"image_url":null,"decayed_at":null,"tle_current":{"epoch":"2026-09-20T09:01:53.234112Z","epoch_age_seconds":94789,"freshness":"FRESH","line1":"1 53847U 22114AF  26263.37631058  .00000827  00000+0  70090-4 0  9995","line2":"2 53847  53.1603 139.4079 0001516  95.6929 264.4235 15.08833607222365","mean_motion":15.08833607,"eccentricity":0.0001516,"inclination_deg":53.1603,"raan_deg":139.4079,"arg_perigee_deg":95.6929,"mean_anomaly_deg":264.4235,"bstar":7.009e-5,"rev_number":22236,"period_min":95.43795905124,"perigee_km":538.71417624717,"apogee_km":540.81168350591,"semimajor_km":6917.8999298765,"source":"CELESTRAK","updated_at":"2026-09-21T09:00:33.022378Z"}}}